Ainsworth, NE

10:43 PM CDT on March 26, 2017 (GMT -0500)
Ainsworth Municipal

Weather History for KANW - January, 2013

Change the Weather History Date:

Tuesday, January 29, 2013

  Actual Average Record
Temperature  
Mean Temperature 26 °F -  
Max Temperature 32 °F 35 °F 56 °F (2012)
Min Temperature 19 °F 16 °F 1 °F (2004)
Degree Days  
Heating Degree Days 38    
Moisture  
Dew Point 26 °F    
Average Humidity 89    
Maximum Humidity 96    
Minimum Humidity 78    
Precipitation  
Precipitation 0.03 in - - ()
Sea Level Pressure  
Sea Level Pressure 29.73 in    
Wind  
Wind Speed 9 mph (NW)    
Max Wind Speed 34 mph    
Max Gust Speed 39 mph    
Visibility 9 miles    
Events Snow    
Averages and records for this station are not official NWS values.
T = Trace of Precipitation, MM = Missing Value Source: NWS Daily Summary

Daily Weather History Graph

Daily Weather History Graph

Search for Another Location

Airport or City:

Trip Planner

Search our weather history database for the weather conditions in past years. The results will help you decide how hot, cold, wet, or windy it might be!

Date:

Astronomy

Jan. 29, 2013 Rise Set
Actual Time 7:56 AM CST 5:50 PM CST
Civil Twilight 7:26 AM CST 6:20 PM CST
Nautical Twilight 6:52 AM CST 6:54 PM CST
Astronomical Twilight 6:19 AM CST 7:27 PM CST
Moon 8:53 PM CST (1/29) 8:50 AM CST (1/29)
Length of Visible Light 10h 53m
Length of Day
9h 53m
Waning Gibbous, 93% of the Moon is Illuminated
Jan 29
Waning Gibbous
Feb 3
Last Quarter
Feb 10
New
Feb 17
First Quarter
Feb 25
Full

Hourly Weather History & Observations

Time (CST) Temp. Windchill Dew Point Humidity Pressure Visibility Wind Dir Wind Speed Gust Speed Precip Events Conditions
12:15 AM 30.4 °F 21.5 °F 29.1 °F 95% 29.68 in 3.0 mi NNW 10.4 mph - N/A Snow Light Snow
12:35 AM 30.2 °F 21.9 °F 29.1 °F 96% 29.70 in 10.0 mi NW 9.2 mph - N/A Snow Light Snow
12:55 AM 30.6 °F 22.4 °F 29.3 °F 95% 29.69 in 5.0 mi NW 9.2 mph - N/A Snow Light Snow
1:15 AM 30.6 °F 21.8 °F 29.3 °F 95% 29.69 in 4.0 mi NW 10.4 mph - 0.01 in Snow Light Snow
1:35 AM 30.2 °F 21.3 °F 28.9 °F 95% 29.68 in 10.0 mi NW 10.4 mph - 0.01 in   Overcast
1:55 AM 30.2 °F 22.6 °F 28.9 °F 95% 29.69 in 10.0 mi NW 8.1 mph - 0.01 in   Overcast
2:15 AM 30.2 °F 24.3 °F 28.9 °F 95% 29.70 in 10.0 mi NW 5.8 mph - N/A   Overcast
2:35 AM 30.2 °F 24.3 °F 28.9 °F 95% 29.70 in 10.0 mi NW 5.8 mph - N/A   Overcast
2:55 AM 30.6 °F 22.4 °F 29.1 °F 94% 29.71 in 10.0 mi NW 9.2 mph - N/A   Overcast
3:15 AM 30.2 °F 21.9 °F 28.6 °F 94% 29.69 in 10.0 mi NNW 9.2 mph - N/A   Overcast
3:35 AM 30.2 °F 21.3 °F 28.4 °F 93% 29.68 in 10.0 mi NNW 10.4 mph - N/A   Overcast
3:55 AM 30.2 °F 21.9 °F 28.8 °F 94% 29.68 in 10.0 mi NNW 9.2 mph - N/A   Overcast
4:15 AM 30.2 °F 24.3 °F 28.8 °F 94% 29.69 in 10.0 mi NW 5.8 mph - N/A   Overcast
4:35 AM 30.2 °F - 28.8 °F 94% 29.69 in 10.0 mi Calm Calm - N/A   Overcast
4:55 AM 29.7 °F 26.1 °F 28.2 °F 94% 29.69 in 10.0 mi NW 3.5 mph - N/A   Overcast
5:15 AM 29.1 °F 25.4 °F 27.7 °F 94% 29.69 in 10.0 mi WNW 3.5 mph - N/A   Overcast
5:35 AM 28.8 °F 23.7 °F 27.3 °F 94% 29.70 in 10.0 mi WNW 4.6 mph - N/A   Overcast
5:55 AM 28.6 °F 23.5 °F 27.3 °F 95% 29.70 in 10.0 mi WNW 4.6 mph - N/A   Overcast
6:15 AM 28.2 °F 23.1 °F 26.6 °F 94% 29.69 in 10.0 mi WNW 4.6 mph - N/A   Overcast
6:35 AM 27.9 °F 24.0 °F 26.2 °F 94% 29.69 in 10.0 mi WNW 3.5 mph - N/A   Overcast
6:55 AM 27.9 °F 22.6 °F 26.4 °F 94% 29.69 in 10.0 mi West 4.6 mph - N/A   Overcast
7:15 AM 28.2 °F 22.0 °F 26.8 °F 94% 29.69 in 10.0 mi WNW 5.8 mph - N/A   Overcast
7:35 AM 28.0 °F 21.7 °F 26.2 °F 93% 29.69 in 10.0 mi NW 5.8 mph - N/A   Overcast
7:55 AM 27.5 °F 21.1 °F 25.7 °F 93% 29.70 in 10.0 mi NW 5.8 mph - N/A   Mostly Cloudy
8:15 AM 26.4 °F 19.8 °F 24.3 °F 92% 29.70 in 10.0 mi WNW 5.8 mph - N/A   Scattered Clouds
8:35 AM 26.2 °F 20.7 °F 23.9 °F 91% 29.70 in 10.0 mi WNW 4.6 mph - N/A   Scattered Clouds
8:55 AM 26.6 °F - 24.6 °F 92% 29.71 in 10.0 mi Calm Calm - N/A   Overcast
9:15 AM 27.9 °F 22.6 °F 25.3 °F 90% 29.71 in 10.0 mi NW 4.6 mph - N/A   Overcast
9:35 AM 27.9 °F 22.6 °F 24.8 °F 88% 29.70 in 10.0 mi NW 4.6 mph - N/A   Mostly Cloudy
9:55 AM 27.9 °F 22.6 °F 24.8 °F 88% 29.70 in 10.0 mi NW 4.6 mph - N/A   Scattered Clouds
10:15 AM 28.4 °F 23.3 °F 25.5 °F 89% 29.71 in 10.0 mi WNW 4.6 mph - N/A   Mostly Cloudy
10:35 AM 29.3 °F 22.3 °F 25.5 °F 86% 29.70 in 10.0 mi NW 6.9 mph - N/A   Overcast
10:55 AM 29.8 °F 22.2 °F 25.7 °F 85% 29.71 in 10.0 mi NW 8.1 mph - N/A   Overcast
11:15 AM 30.0 °F 23.2 °F 25.7 °F 84% 29.72 in 10.0 mi NW 6.9 mph - N/A   Mostly Cloudy
11:35 AM 30.0 °F 22.4 °F 25.9 °F 85% 29.71 in 10.0 mi NW 8.1 mph - N/A   Scattered Clouds
11:55 AM 30.2 °F 22.6 °F 26.1 °F 85% 29.71 in 10.0 mi NW 8.1 mph - N/A   Clear
12:15 PM 30.9 °F 23.5 °F 26.6 °F 84% 29.71 in 10.0 mi NW 8.1 mph - N/A   Scattered Clouds
12:35 PM 31.1 °F 24.5 °F 27.3 °F 86% 29.70 in 10.0 mi NNW 6.9 mph - N/A   Overcast
12:55 PM 31.8 °F 24.6 °F 27.5 °F 84% 29.70 in 10.0 mi NW 8.1 mph - 0.01 in   Overcast
1:15 PM 32.0 °F 24.2 °F 27.3 °F 83% 29.70 in 10.0 mi NNW 9.2 mph - N/A   Overcast
1:35 PM 32.0 °F 24.8 °F 27.5 °F 83% 29.70 in 10.0 mi NNW 8.1 mph - N/A   Overcast
1:55 PM 32.2 °F 24.4 °F 27.9 °F 84% 29.70 in 10.0 mi NNW 9.2 mph - N/A   Overcast
2:15 PM 32.5 °F 23.7 °F 28.2 °F 84% 29.69 in 10.0 mi NNW 11.5 mph - N/A   Mostly Cloudy
2:35 PM 32.2 °F 23.8 °F 28.2 °F 85% 29.68 in 10.0 mi NNW 10.4 mph - 0.01 in   Scattered Clouds
2:55 PM 32.7 °F 23.0 °F 27.9 °F 82% 29.68 in 10.0 mi North 13.8 mph - 0.01 in   Mostly Cloudy
3:15 PM 32.4 °F 23.0 °F 27.1 °F 81% 29.69 in 10.0 mi North 12.7 mph - N/A   Overcast
3:35 PM 32.0 °F 22.1 °F 26.6 °F 80% 29.69 in 10.0 mi North 13.8 mph - N/A   Overcast
3:55 PM 32.0 °F 23.6 °F 27.3 °F 83% 29.69 in 10.0 mi North 10.4 mph - N/A   Overcast
4:15 PM 32.0 °F 23.0 °F 27.5 °F 83% 29.69 in 10.0 mi North 11.5 mph - N/A   Overcast
4:35 PM 32.0 °F 23.0 °F 27.9 °F 85% 29.72 in 10.0 mi North 11.5 mph - N/A   Overcast
4:55 PM 32.0 °F 23.0 °F 27.7 °F 84% 29.73 in 10.0 mi NNW 11.5 mph - N/A   Overcast
5:15 PM 31.8 °F 25.4 °F 27.5 °F 84% 29.73 in 10.0 mi NNW 6.9 mph - N/A   Overcast
5:35 PM 31.3 °F 23.9 °F 27.5 °F 86% 29.74 in 10.0 mi NNW 8.1 mph - N/A   Overcast
5:55 PM 31.1 °F 23.7 °F 26.2 °F 82% 29.76 in 10.0 mi NNW 8.1 mph - N/A   Overcast
6:15 PM 30.4 °F 21.0 °F 24.8 °F 80% 29.76 in 10.0 mi NNW 11.5 mph - N/A   Mostly Cloudy
6:35 PM 29.3 °F 19.6 °F 23.4 °F 78% 29.77 in 10.0 mi NNW 11.5 mph - N/A   Scattered Clouds
6:55 PM 27.3 °F 17.1 °F 22.3 °F 81% 29.76 in 10.0 mi NNW 11.5 mph - N/A   Clear
7:15 PM 26.6 °F 16.2 °F 22.5 °F 84% 29.78 in 10.0 mi NNW 11.5 mph - N/A   Clear
7:35 PM 25.9 °F 16.0 °F 22.3 °F 86% 29.80 in 10.0 mi NNW 10.4 mph - N/A   Clear
7:55 PM 25.5 °F 16.2 °F 22.3 °F 88% 29.80 in 10.0 mi NW 9.2 mph - N/A   Clear
8:15 PM 24.3 °F 15.4 °F 20.8 °F 87% 29.81 in 10.0 mi NNW 8.1 mph - N/A   Clear
8:35 PM 24.4 °F 14.2 °F 22.1 °F 91% 29.82 in 10.0 mi NNW 10.4 mph - N/A   Mostly Cloudy
8:55 PM 27.5 °F 14.6 °F 25.0 °F 90% 29.82 in 10.0 mi NNW 18.4 mph 21.9 mph N/A   Overcast
9:15 PM 27.3 °F 13.0 °F 24.6 °F 90% 29.82 in 10.0 mi North 23.0 mph - N/A   Overcast
9:35 PM 27.5 °F 14.2 °F 25.3 °F 92% 29.82 in 10.0 mi North 19.6 mph - N/A   Overcast
9:55 PM 27.5 °F 12.6 °F 25.7 °F 93% 29.83 in 5.0 mi North 25.3 mph 32.2 mph N/A   Overcast
10:15 PM 26.6 °F 11.4 °F 24.8 °F 93% 29.84 in 4.0 mi North 25.3 mph 29.9 mph N/A Snow Light Snow
10:35 PM 25.3 °F 9.7 °F 23.4 °F 92% 29.84 in 3.0 mi NNW 25.3 mph 31.1 mph N/A   Overcast
10:55 PM 23.9 °F 8.1 °F 21.9 °F 92% 29.85 in 2.5 mi NNW 24.2 mph 32.2 mph N/A   Overcast
11:15 PM 23.0 °F 6.0 °F 21.0 °F 92% 29.86 in 2.0 mi North 27.6 mph 32.2 mph N/A   Overcast
11:35 PM 21.7 °F 2.6 °F 19.2 °F 90% 29.88 in 1.2 mi North 34.5 mph 39.1 mph N/A Snow Light Snow
11:55 PM 19.2 °F -0.0 °F 16.0 °F 87% 29.89 in 1.0 mi North 31.1 mph 38.0 mph N/A Snow Light Snow